Regional Weather Roundup
Issued by NWS

Home | Current Version | Previous Version | Graphics & Text | Print | Product List | Glossary On
Versions: 1 2 3 4 5 6 7 8 9 10 11 12 13 14 15 16 17 18 19 20 21 22 23 24 25 26 27 28 29 30 31 32 33 34 35 36 37 38 39 40 41 42 43 44 45 46 47 48 49 50
000
ASUS44 KMEG 272000
RWRTN
TENNESSEE HOURLY STATE WEATHER ROUNDUP
NATIONAL WEATHER SERVICE MEMPHIS TN
200 PM CST THU NOV 27 2014

TNZ002-004-019-021-049-052-054-088>092-272100-
WEST TENNESSEE

CITY           SKY/WX    TMP DP  RH WIND       PRES   REMARKS
MEMPHIS INTL   PTSUNNY   44  27  51 N5        30.47S
NWS MEMPHIS      N/A     43 N/A N/A MISG        N/A
JACKSON        CLOUDY    39  27  62 N12       30.47S WCI  32
DYERSBURG      PTSUNNY   39  19  45 N5        30.48F
UNION CITY     CLOUDY    32  27  80 N12       30.47S WCI  23
PARIS          CLOUDY    30  21  69 NW6       30.46R WCI  24
LEXINGTON      CLOUDY    36  27  69 NW9       30.43S WCI  29
SAVANNAH       CLOUDY    39  27  60 NW6       30.44S WCI  35
$$

TNZ008-025-027-028-033-062-065-066-272100-
NORTH MIDDLE TENNESSEE

CITY           SKY/WX    TMP DP  RH WIND       PRES   REMARKS
NASHVILLE      MOSUNNY   40  25  55 N10       30.41S WCI  33
CLARKSVILLE    CLOUDY    34  22  61 NW12      30.44S WCI  25
COOKEVILLE     PTSUNNY   34  27  75 N8        30.35S WCI  27
CROSSVILLE     CLOUDY    33  25  72 NW13      30.30R WCI  24
$$

TNZ061-075-076-078-094-096-097-272100-
SOUTH MIDDLE TENNESSEE

CITY           SKY/WX    TMP DP  RH WIND       PRES   REMARKS
TULLAHOMA      CLOUDY    36  27  69 NW12      30.36R WCI  27
WINCHESTER     CLOUDY    37  27  65 NW8       30.35F WCI  31
SHELBYVILLE    CLOUDY    39  27  60 NW15      30.38F WCI  31
$$

TNZ017-018-042-046-047-272100-
NORTHEAST TENNESSEE

CITY           SKY/WX    TMP DP  RH WIND       PRES   REMARKS
TRI CITIES     CLOUDY    36  28  73 W12       30.21R WCI  28
ELIZABETHTON   LGT SNOW  34  28  80 NW9       30.20R WCI  26
$$

TNZ012-013-036-069-073-074-272100-
CENTRAL EAST TENNESSEE

CITY           SKY/WX    TMP DP  RH WIND       PRES   REMARKS
KNOXVILLE      CLOUDY    38  29  70 W16       30.30R WCI  29
OAK RIDGE      CLOUDY    38  28  67 VRB6      30.33R WCI  33
GATLINBURG     CLOUDY    37  27  65 NW8       30.28R WCI  31
$$

TNZ083-085-099-272100-
SOUTHEAST TENNESSEE

CITY           SKY/WX    TMP DP  RH WIND       PRES   REMARKS
CHATTANOOGA    PTSUNNY   42  26  53 NW10      30.34S
$$

SKY/WX REPORTED AS FAIR MEANS FEW OR NO CLOUDS BELOW
12 THOUSAND FEET.



USA.gov is the U.S. government's official web portal to all federal, state and local government web resources and services.